This demonstration page uses our WeatherBlox Daily Observations layout. Learn more.

Left ArrowRight Arrow

Hourly Observations for October 25, 2015

Temp ( °F °C ) Dew Point ( °F °C ) Humidity (%) Winds ( mph kmh ) Pressure ( in mb ) Visibility ( mi km ) Precip ( " mm )
12:53 am 00:53 Clear 60 15.6 46 7.8 60 60 NNW 3 6 29.91 1013 10 16 0.00 0.00
1:53 am 01:53 Clear 60 15.6 46 7.8 60 60 Calm 29.90 1012 10 16 0.00 0.00
2:53 am 02:53 Clear 59 15 47 8.3 64 64 N 3 6 29.89 1012 10 16 0.00 0.00
3:53 am 03:53 Clear 59 15 47 8.3 64 64 NNE 3 6 29.88 1012 10 16 0.00 0.00
4:53 am 04:53 Clear 57 13.9 47 8.3 69 69 WNW 3 6 29.88 1012 10 16 0.00 0.00
5:53 am 05:53 Clear 57 13.9 47 8.3 69 69 Calm 29.89 1012 10 16 0.00 0.00
6:53 am 06:53 Partly Cloudy 54 12.2 45 7.2 72 72 E 6 9 29.91 1013 10 16 0.00 0.00
7:53 am 07:53 Sunny 54 12.2 44 6.7 69 69 W 5 7 29.91 1013 10 16 0.00 0.00
8:53 am 08:53 Sunny 58 14.4 47 8.3 67 67 Calm 29.93 1014 10 16 0.00 0.00
9:53 am 09:53 Sunny 65 18.3 46 7.8 51 51 Calm 29.94 1014 10 16 0.00 0.00
10:53 am 10:53 Sunny 68 20 45 7.2 44 44 SSE 10 17 29.93 1014 10 16 0.00 0.00
11:53 am 11:53 Sunny 73 22.8 42 5.6 33 33 S 12 19 29.93 1013 10 16 0.00 0.00
12:53 pm 12:53 Sunny 77 25 38 3.3 24 24 S 7 11 29.91 1013 10 16 0.00 0.00
1:53 pm 13:53 Sunny 79 26.1 40 4.4 25 25 S 8 13 29.89 1012 10 16 0.00 0.00
2:53 pm 14:53 Sunny 81 27.2 36 2.2 20 20 S 12 19 29.88 1012 10 16 0.00 0.00
3:53 pm 15:53 Sunny 81 27.2 38 3.3 21 21 S 15 24 29.88 1012 10 16 0.00 0.00
4:53 pm 16:53 Sunny 80 26.7 38 3.3 22 22 SSE 16 26 29.87 1012 10 16 0.00 0.00
5:53 pm 17:53 Sunny 76 24.4 40 4.4 27 27 SSE 13 20 29.88 1012 10 16 0.00 0.00
6:53 pm 18:53 Clear 75 23.9 41 5 29 29 SW 6 9 29.90 1013 10 16 0.00 0.00
7:53 pm 19:53 Clear 70 21.1 42 5.6 37 37 SSW 3 6 29.92 1013 10 16 0.00 0.00
8:53 pm 20:53 Clear 66 18.9 42 5.6 42 42 VRB 3 6 29.92 1013 10 16 0.00 0.00
9:53 pm 21:53 Clear 63 17.2 43 6.1 48 48 WNW 5 7 29.93 1014 10 16 0.00 0.00
10:53 pm 22:53 Clear 63 17.2 43 6.1 48 48 Calm 29.95 1014 10 16 0.00 0.00
11:53 pm 23:53 Clear 62 16.7 44 6.7 52 52 N 5 7 29.95 1014 10 16 0.00 0.00

Powered by AerisWeather